| time (UTC) | temp F | wind direction | speed knots | gust knots | rain 1hr in | rain 24hr in | rain mn in | humidity % | barometer mb |
| 20260507040013 | 57 | 29 | 0.9 | 3.5 | 0.01 | 0.24 | 0.24 | 84 | 1009.7 |
| 20260507034511 | 58 | 324 | 0.0 | 2.6 | 0.00 | 0.23 | 0.23 | 82 | 1009.3 |
| 20260507033009 | 58 | 311 | 0.0 | 1.7 | 0.00 | 0.23 | 0.23 | 82 | 1009.8 |
| 20260507031510 | 59 | 306 | 0.0 | 2.6 | 0.00 | 0.23 | 0.23 | 83 | 1009.2 |
| 20260507030004 | 59 | 212 | 0.9 | 3.5 | 0.00 | 0.23 | 0.23 | 83 | 1009.4 |
| 20260507024502 | 60 | 223 | 0.9 | 4.3 | 0.00 | 0.23 | 0.23 | 82 | 1009.1 |
| 20260507023002 | 60 | 228 | 0.9 | 3.5 | 0.00 | 0.23 | 0.23 | 82 | 1009.0 |
| 20260507021602 | 60 | 248 | 0.9 | 5.2 | 0.01 | 0.23 | 0.23 | 82 | 1008.8 |
| 20260507020059 | 60 | 228 | 1.7 | 7.8 | 0.01 | 0.23 | 0.23 | 82 | 1009.1 |
| 20260507014559 | 61 | 277 | 0.9 | 3.5 | 0.02 | 0.23 | 0.23 | 84 | 1009.2 |
| 20260507013056 | 61 | 221 | 0.9 | 6.1 | 0.03 | 0.23 | 0.23 | 84 | 1009.3 |
| 20260507011552 | 62 | 214 | 1.7 | 4.3 | 0.04 | 0.22 | 0.22 | 83 | 1009.0 |
| 20260507010108 | 63 | 212 | 0.9 | 7.0 | 0.06 | 0.22 | 0.22 | 83 | 1008.9 |
| 20260507004549 | 65 | 295 | 0.9 | 3.5 | 0.05 | 0.21 | 0.21 | 84 | 1008.3 |
| 20260507003048 | 65 | 257 | 0.0 | 1.7 | 0.04 | 0.20 | 0.20 | 84 | 1008.3 |
| 20260507001554 | 67 | 225 | 0.9 | 3.5 | 0.01 | 0.17 | 0.17 | 82 | 1007.9 |
| 20260507000048 | 67 | 225 | 0.0 | 2.6 | 0.00 | 0.16 | 0.16 | 81 | 1007.4 |
| 20260506234545 | 67 | 242 | 0.0 | 1.7 | 0.00 | 0.16 | 0.16 | 81 | 1007.2 |
| 20260506233057 | 68 | 240 | 0.0 | 2.6 | 0.00 | 0.16 | 0.16 | 80 | 1007.0 |
| 20260506231545 | 68 | 221 | 0.0 | 1.7 | 0.00 | 0.16 | 0.16 | 80 | 1007.0 |
| 20260506230046 | 68 | 46 | 0.0 | 2.6 | 0.00 | 0.16 | 0.16 | 79 | 1007.0 |
| 20260506224542 | 68 | 259 | 0.9 | 3.5 | 0.00 | 0.16 | 0.16 | 80 | 1007.1 |
| 20260506223045 | 68 | 253 | 0.0 | 2.6 | 0.00 | 0.16 | 0.16 | 81 | 1006.9 |
| 20260506221546 | 69 | 247 | 0.0 | 1.7 | 0.00 | 0.16 | 0.16 | 80 | 1006.9 |
| 20260506220049 | 69 | 249 | 0.0 | 0.9 | 0.00 | 0.16 | 0.16 | 80 | 1006.7 |
| 20260506214540 | 69 | 229 | 0.0 | 0.9 | 0.00 | 0.16 | 0.16 | 80 | 1006.8 |
| 20260506213040 | 69 | 256 | 0.0 | 0.9 | 0.00 | 0.16 | 0.16 | 79 | 1006.6 |
| 20260506211547 | 70 | 212 | 0.0 | 0.9 | 0.00 | 0.16 | 0.16 | 79 | 1006.5 |
| 20260506210037 | 68 | 274 | 0.0 | 1.7 | 0.00 | 0.16 | 0.16 | 81 | 1006.2 |
| 20260506204534 | 67 | 280 | 0.0 | 1.7 | 0.00 | 0.16 | 0.16 | 81 | 1006.2 |
| 20260506203034 | 68 | 288 | 0.0 | 1.7 | 0.00 | 0.16 | 0.16 | 81 | 1006.3 |
| 20260506201534 | 67 | 252 | 1.7 | 5.2 | 0.00 | 0.16 | 0.16 | 81 | 1006.3 |
| 20260506200032 | 67 | 255 | 0.9 | 2.6 | 0.00 | 0.16 | 0.16 | 81 | 1006.1 |
| 20260506194535 | 67 | 6 | 0.0 | 4.3 | 0.00 | 0.16 | 0.16 | 81 | 1006.3 |
| 20260506193033 | 67 | 356 | 0.9 | 6.1 | 0.00 | 0.16 | 0.16 | 81 | 1006.5 |
| 20260506191529 | 67 | 201 | 1.7 | 7.0 | 0.00 | 0.16 | 0.16 | 81 | 1006.5 |
| 20260506190028 | 67 | 290 | 0.0 | 6.1 | 0.00 | 0.16 | 0.16 | 82 | 1006.6 |
| 20260506184526 | 67 | 256 | 2.6 | 5.2 | 0.00 | 0.16 | 0.16 | 81 | 1006.7 |
| 20260506183024 | 66 | 246 | 0.9 | 5.2 | 0.00 | 0.16 | 0.16 | 83 | 1006.8 |
| 20260506181524 | 65 | 30 | 0.9 | 4.3 | 0.00 | 0.16 | 0.16 | 84 | 1007.0 |
| 20260506180022 | 63 | 56 | 0.9 | 2.6 | 0.00 | 0.16 | 0.16 | 84 | 1007.1 |
| 20260506174521 | 63 | 279 | 0.9 | 4.3 | 0.00 | 0.16 | 0.16 | 85 | 1007.3 |
| 20260506173129 | 63 | 56 | 0.0 | 2.6 | 0.00 | 0.16 | 0.16 | 85 | 1007.2 |
| 20260506171521 | 62 | 229 | 1.7 | 5.2 | 0.00 | 0.16 | 0.16 | 85 | 1007.2 |
| 20260506170022 | 62 | 360 | 1.7 | 5.2 | 0.00 | 0.16 | 0.16 | 85 | 1007.0 |
| 20260506164517 | 62 | 308 | 0.9 | 3.5 | 0.01 | 0.16 | 0.16 | 85 | 1007.1 |
| 20260506163022 | 62 | 73 | 0.9 | 2.6 | 0.02 | 0.16 | 0.16 | 84 | 1007.2 |
| 20260506161516 | 63 | 311 | 0.9 | 4.3 | 0.04 | 0.16 | 0.16 | 84 | 1007.5 |
| 20260506160015 | 63 | 345 | 0.0 | 2.6 | 0.05 | 0.16 | 0.16 | 84 | 1007.1 |
| 20260506154515 | 62 | 39 | 0.9 | 4.3 | 0.06 | 0.15 | 0.15 | 84 | 1006.8 |
| 20260506153013 | 62 | 194 | 0.0 | 4.3 | 0.07 | 0.14 | 0.14 | 84 | 1007.7 |
| 20260506151514 | 62 | 8 | 0.0 | 2.6 | 0.05 | 0.12 | 0.12 | 84 | 1008.2 |
| 20260506150013 | 62 | 36 | 0.0 | 3.5 | 0.05 | 0.11 | 0.11 | 84 | 1008.2 |
| 20260506144524 | 62 | 79 | 0.0 | 3.5 | 0.06 | 0.09 | 0.09 | 84 | 1008.1 |
| 20260506143011 | 62 | 172 | 0.0 | 2.6 | 0.05 | 0.07 | 0.07 | 84 | 1007.8 |
| 20260506141511 | 62 | 200 | 0.0 | 0.9 | 0.06 | 0.07 | 0.07 | 84 | 1008.0 |
| 20260506140010 | 62 | 256 | 0.0 | 0.9 | 0.06 | 0.06 | 0.06 | 84 | 1008.0 |
| 20260506134507 | 63 | 225 | 0.0 | 1.7 | 0.03 | 0.03 | 0.03 | 84 | 1008.0 |
| 20260506133005 | 63 | 250 | 0.0 | 1.7 | 0.02 | 0.02 | 0.02 | 83 | 1008.0 |
| 20260506131504 | 64 | 245 | 0.0 | 1.7 | 0.01 | 0.01 | 0.01 | 82 | 1008.0 |
| 20260506130003 | 64 | 215 | 0.0 | 1.7 | 0.00 | 0.00 | 0.00 | 81 | 1008.1 |
| 20260506124501 | 64 | 172 | 0.0 | 1.7 | 0.00 | 0.00 | 0.00 | 81 | 1008.1 |
| 20260506123102 | 64 | 302 | 0.0 | 2.6 | 0.00 | 0.00 | 0.00 | 80 | 1008.3 |
| 20260506121601 | 64 | 249 | 0.0 | 3.5 | 0.00 | 0.00 | 0.00 | 80 | 1008.4 |
| 20260506120104 | 64 | 264 | 0.0 | 3.5 | 0.00 | 0.00 | 0.00 | 80 | 1008.0 |
| 20260506114557 | 64 | 43 | 0.0 | 4.3 | 0.00 | 0.00 | 0.00 | 79 | 1007.8 |
| 20260506113056 | 65 | 25 | 0.9 | 2.6 | 0.00 | 0.00 | 0.00 | 77 | 1007.8 |
| 20260506111555 | 65 | 249 | 0.9 | 2.6 | 0.00 | 0.00 | 0.00 | 77 | 1007.7 |
| 20260506110054 | 65 | 262 | 0.0 | 2.6 | 0.00 | 0.00 | 0.00 | 77 | 1007.4 |
| 20260506104559 | 65 | 266 | 0.0 | 5.2 | 0.00 | 0.00 | 0.00 | 76 | 1007.2 |
| 20260506103054 | 65 | 273 | 0.9 | 2.6 | 0.00 | 0.00 | 0.00 | 76 | 1007.3 |
| 20260506101550 | 65 | 75 | 0.0 | 3.5 | 0.00 | 0.00 | 0.00 | 75 | 1007.1 |
| 20260506100104 | 65 | 349 | 0.0 | 4.3 | 0.00 | 0.00 | 0.00 | 75 | 1007.1 |
| 20260506094550 | 66 | 47 | 0.0 | 2.6 | 0.00 | 0.00 | 0.00 | 74 | 1007.1 |
| 20260506093046 | 66 | 91 | 0.0 | 1.7 | 0.00 | 0.00 | 0.00 | 74 | 1007.0 |
| 20260506091544 | 66 | 90 | 0.0 | 2.6 | 0.00 | 0.00 | 0.00 | 73 | 1007.2 |
| 20260506090043 | 66 | 122 | 0.0 | 5.2 | 0.00 | 0.00 | 0.00 | 72 | 1007.3 |
| 20260506084541 | 66 | 6 | 0.0 | 4.3 | 0.00 | 0.00 | 0.00 | 71 | 1007.4 |
| 20260506083040 | 66 | 34 | 0.0 | 3.5 | 0.00 | 0.00 | 0.00 | 70 | 1007.3 |
| 20260506081543 | 66 | 240 | 0.9 | 1.7 | 0.00 | 0.00 | 0.00 | 69 | 1007.3 |
| 20260506073031 | 67 | 181 | 0.0 | 1.7 | 0.00 | 0.00 | 0.00 | 66 | 1007.6 |
| 20260506071528 | 68 | 102 | 0.0 | 1.7 | 0.00 | 0.00 | 0.00 | 64 | 1007.6 |
| 20260506061519 | 68 | 245 | 0.0 | 1.7 | 0.00 | 0.00 | 0.00 | 60 | 1008.2 |
| 20260506044509 | 69 | 245 | 0.0 | 2.6 | 0.00 | 0.00 | 0.00 | 55 | 1008.6 |
| 20260506043007 | 69 | 41 | 0.9 | 7.0 | 0.00 | 0.00 | 0.00 | 54 | 1008.7 |
| 20260506041505 | 69 | 256 | 0.0 | 1.7 | 0.00 | 0.00 | 0.00 | 54 | 1008.8 |